User: anonymous   Login
Location: *
(51.1248°S, 108.4023°W)
Time: 02:14:39
(UTC+00:00)
Language:

Cosmos 2228 Rocket - Orbit

View from above orbital plane
View from above orbital plane
View from above satellite
View from above satellite

Ground track
Ground track

The orbit data is extracted from the following two-line orbital elements,

1 22287U 92094B   21269.38136215  .00000115  00000-0  12718-4 0  9994
2 22287  82.5232  63.8652 0023172 257.1376 102.7248 14.78195167528290
Epoch (UTC): 26 September 2021 09:09:09
Eccentricity: 0.0023172
inclination: 82.5232°
perigee height: 619 km
apogee height: 651 km
right ascension of ascending node: 63.8652°
argument of perigee: 257.1376°
revolutions per day: 14.78195167
mean anomaly at epoch: 102.7248°
orbit number at epoch: 52829

The dashed part of the orbit path shows where the satellite is in the earth's shadow,  

DLR